Time,TemperatureF,DewpointF,PressureIn,WindDirection,WindDirectionDegrees,WindSpeedMPH,WindSpeedGustMPH,Humidity,HourlyPrecipIn,Conditions,Clouds,dailyrainin,SolarRadiationWatts/m^2,SoftwareType,DateUTC
2013-04-02 00:09:00,52.9,51.0,30.25,NNW,331,0.0,0.0,92,0.00,,,0.00,0,weatherlink.com 1.10,2013-04-02 07:09:00,
2013-04-02 00:24:00,52.3,50.0,30.24,NNW,331,0.0,0.0,91,0.00,,,0.00,0,weatherlink.com 1.10,2013-04-02 07:24:00,
2013-04-02 00:39:00,51.0,49.0,30.24,NNW,331,0.0,0.0,91,0.00,,,0.00,0,weatherlink.com 1.10,2013-04-02 07:39:00,
2013-04-02 00:54:00,49.8,47.0,30.25,NNW,331,0.0,0.0,91,0.00,,,0.00,0,weatherlink.com 1.10,2013-04-02 07:54:00,
2013-04-02 01:09:00,49.0,47.0,30.25,NNW,331,0.0,0.0,92,0.00,,,0.00,0,weatherlink.com 1.10,2013-04-02 08:09:00,
2013-04-02 01:24:00,48.4,46.0,30.26,NNW,331,0.0,0.0,92,0.00,,,0.00,0,weatherlink.com 1.10,2013-04-02 08:24:00,
2013-04-02 01:39:00,48.2,46.0,30.26,NNW,331,0.0,1.0,92,0.00,,,0.00,0,weatherlink.com 1.10,2013-04-02 08:39:00,
2013-04-02 01:54:00,48.0,46.0,30.26,NNW,331,0.0,0.0,93,0.00,,,0.00,0,weatherlink.com 1.10,2013-04-02 08:54:00,
2013-04-02 02:09:00,48.5,47.0,30.26,NNW,331,0.0,0.0,93,0.00,,,0.00,0,weatherlink.com 1.10,2013-04-02 09:09:00,
2013-04-02 02:24:00,49.9,48.0,30.25,NNW,331,0.0,0.0,94,0.00,,,0.00,0,weatherlink.com 1.10,2013-04-02 09:24:00,
2013-04-02 02:39:00,51.1,50.0,30.25,NNW,331,0.0,0.0,94,0.00,,,0.00,0,weatherlink.com 1.10,2013-04-02 09:39:00,
2013-04-02 02:54:00,51.7,50.0,30.25,NNW,331,0.0,0.0,94,0.00,,,0.00,0,weatherlink.com 1.10,2013-04-02 09:54:00,
2013-04-02 03:09:00,52.3,51.0,30.25,NNW,331,0.0,0.0,94,0.00,,,0.00,0,weatherlink.com 1.10,2013-04-02 10:09:00,
2013-04-02 03:24:00,52.4,51.0,30.25,NNW,331,0.0,0.0,94,0.00,,,0.00,0,weatherlink.com 1.10,2013-04-02 10:24:00,
2013-04-02 03:39:00,52.3,51.0,30.25,NNW,331,0.0,0.0,94,0.00,,,0.00,0,weatherlink.com 1.10,2013-04-02 10:39:00,
2013-04-02 03:54:00,52.6,51.0,30.25,NNW,331,0.0,0.0,94,0.00,,,0.00,0,weatherlink.com 1.10,2013-04-02 10:54:00,
2013-04-02 04:09:00,52.9,51.0,30.25,NNW,331,0.0,0.0,94,0.00,,,0.00,0,weatherlink.com 1.10,2013-04-02 11:09:00,
2013-04-02 04:24:00,53.2,52.0,30.25,NNW,331,0.0,0.0,94,0.00,,,0.00,0,weatherlink.com 1.10,2013-04-02 11:24:00,
2013-04-02 04:39:00,53.2,52.0,30.25,NNW,331,0.0,0.0,94,0.00,,,0.00,0,weatherlink.com 1.10,2013-04-02 11:39:00,
2013-04-02 04:54:00,53.3,52.0,30.25,NNW,331,0.0,0.0,94,0.00,,,0.00,0,weatherlink.com 1.10,2013-04-02 11:54:00,
2013-04-02 05:09:00,51.9,50.0,30.25,NNW,331,0.0,1.0,93,0.00,,,0.00,0,weatherlink.com 1.10,2013-04-02 12:09:00,
2013-04-02 05:24:00,51.0,49.0,30.25,NNW,331,0.0,0.0,94,0.00,,,0.00,0,weatherlink.com 1.10,2013-04-02 12:24:00,
2013-04-02 05:39:00,50.6,49.0,30.25,NNW,332,0.0,1.0,94,0.00,,,0.00,0,weatherlink.com 1.10,2013-04-02 12:39:00,
2013-04-02 05:54:00,49.7,48.0,30.25,NNW,332,0.0,1.0,94,0.00,,,0.00,0,weatherlink.com 1.10,2013-04-02 12:54:00,
2013-04-02 06:09:00,48.4,47.0,30.25,NNW,332,0.0,1.0,94,0.00,,,0.00,0,weatherlink.com 1.10,2013-04-02 13:09:00,
2013-04-02 06:24:00,47.0,45.0,30.24,NNW,332,0.0,1.0,93,0.00,,,0.00,0,weatherlink.com 1.10,2013-04-02 13:24:00,
2013-04-02 06:40:00,46.3,45.0,30.24,NNW,332,0.0,0.0,94,0.00,,,0.00,5,weatherlink.com 1.10,2013-04-02 13:40:00,
2013-04-02 06:55:00,45.9,44.0,30.25,NNW,332,0.0,0.0,94,0.00,,,0.00,16,weatherlink.com 1.10,2013-04-02 13:55:00,
2013-04-02 07:10:00,45.8,44.0,30.25,NNW,332,0.0,0.0,94,0.00,,,0.00,25,weatherlink.com 1.10,2013-04-02 14:10:00,
2013-04-02 07:25:00,45.9,44.0,30.25,NNW,332,0.0,0.0,94,0.00,,,0.00,33,weatherlink.com 1.10,2013-04-02 14:25:00,
2013-04-02 07:40:00,47.8,47.0,30.26,NNW,332,0.0,0.0,96,0.00,,,0.00,139,weatherlink.com 1.10,2013-04-02 14:40:00,
2013-04-02 07:55:00,50.5,49.0,30.26,NNW,332,0.0,0.0,96,0.00,,,0.00,193,weatherlink.com 1.10,2013-04-02 14:55:00,
2013-04-02 08:10:00,53.9,53.0,30.26,NNW,332,0.0,1.0,95,0.00,,,0.00,244,weatherlink.com 1.10,2013-04-02 15:10:00,
2013-04-02 08:25:00,57.2,54.0,30.27,NE,51,0.0,2.0,89,0.00,,,0.00,308,weatherlink.com 1.10,2013-04-02 15:25:00,
2013-04-02 08:40:00,59.1,54.0,30.27,NE,50,0.0,1.0,83,0.00,,,0.00,443,weatherlink.com 1.10,2013-04-02 15:40:00,
2013-04-02 08:55:00,58.7,53.0,30.27,NNW,331,2.0,5.0,80,0.00,,,0.00,584,weatherlink.com 1.10,2013-04-02 15:55:00,
2013-04-02 09:10:00,58.7,53.0,30.27,NNW,345,1.0,6.0,80,0.00,,,0.00,274,weatherlink.com 1.10,2013-04-02 16:10:00,
2013-04-02 09:25:00,58.3,52.0,30.26,NW,319,4.0,5.0,79,0.00,,,0.00,183,weatherlink.com 1.10,2013-04-02 16:25:00,
2013-04-02 09:40:00,58.2,52.0,30.26,NW,310,2.0,7.0,80,0.00,,,0.00,193,weatherlink.com 1.10,2013-04-02 16:40:00,
2013-04-02 09:55:00,58.6,52.0,30.26,WSW,244,0.0,4.0,79,0.00,,,0.00,241,weatherlink.com 1.10,2013-04-02 16:55:00,
2013-04-02 10:10:00,61.1,54.0,30.25,WSW,246,2.0,3.0,77,0.00,,,0.00,404,weatherlink.com 1.10,2013-04-02 17:10:00,
2013-04-02 10:25:00,60.3,52.0,30.26,NW,321,0.0,5.0,74,0.00,,,0.00,396,weatherlink.com 1.10,2013-04-02 17:25:00,
2013-04-02 10:40:00,62.2,53.0,30.25,NNW,331,0.0,4.0,71,0.00,,,0.00,378,weatherlink.com 1.10,2013-04-02 17:40:00,
2013-04-02 10:55:00,60.7,52.0,30.25,NW,326,0.0,5.0,73,0.00,,,0.00,283,weatherlink.com 1.10,2013-04-02 17:55:00,
2013-04-02 11:10:00,62.4,54.0,30.25,WNW,295,3.0,7.0,74,0.00,,,0.00,865,weatherlink.com 1.10,2013-04-02 18:10:00,
2013-04-02 11:25:00,62.0,52.0,30.24,SSW,194,1.0,6.0,71,0.00,,,0.00,315,weatherlink.com 1.10,2013-04-02 18:25:00,
2013-04-02 11:40:00,63.5,53.0,30.24,SW,230,1.0,4.0,68,0.00,,,0.00,432,weatherlink.com 1.10,2013-04-02 18:40:00,
2013-04-02 12:25:00,65.2,53.0,30.22,ESE,123,3.0,4.0,64,0.00,,,0.00,499,weatherlink.com 1.10,2013-04-02 19:25:00,
2013-04-02 12:40:00,67.2,54.0,30.21,SSW,194,0.0,9.0,62,0.00,,,0.00,911,weatherlink.com 1.10,2013-04-02 19:40:00,
2013-04-02 12:56:00,66.7,53.0,30.21,South,177,0.0,7.0,62,0.00,,,0.00,914,weatherlink.com 1.10,2013-04-02 19:56:00,
2013-04-02 13:11:00,67.4,53.0,30.20,NW,326,5.0,9.0,60,0.00,,,0.00,893,weatherlink.com 1.10,2013-04-02 20:11:00,
2013-04-02 13:26:00,67.3,53.0,30.19,SSW,205,1.0,6.0,61,0.00,,,0.00,896,weatherlink.com 1.10,2013-04-02 20:26:00,
2013-04-02 13:41:00,68.0,53.0,30.19,SSW,194,2.0,9.0,60,0.00,,,0.00,895,weatherlink.com 1.10,2013-04-02 20:41:00,
2013-04-02 14:26:00,67.0,52.0,30.17,SSW,213,1.0,7.0,60,0.00,,,0.00,844,weatherlink.com 1.10,2013-04-02 21:26:00,
2013-04-02 14:41:00,67.6,54.0,30.17,SE,137,1.0,7.0,62,0.00,,,0.00,816,weatherlink.com 1.10,2013-04-02 21:41:00,
2013-04-02 15:56:00,68.3,53.0,30.14,SW,215,5.0,6.0,59,0.00,,,0.00,642,weatherlink.com 1.10,2013-04-02 22:56:00,
2013-04-02 16:26:00,66.8,54.0,30.14,SSW,211,2.0,7.0,63,0.00,,,0.00,545,weatherlink.com 1.10,2013-04-02 23:26:00,
2013-04-02 16:41:00,67.0,53.0,30.14,SW,234,0.0,4.0,62,0.00,,,0.00,496,weatherlink.com 1.10,2013-04-02 23:41:00,
2013-04-02 17:11:00,66.9,54.0,30.14,SSW,192,2.0,3.0,63,0.00,,,0.00,385,weatherlink.com 1.10,2013-04-03 00:11:00,
2013-04-02 17:26:00,67.1,54.0,30.14,SSW,202,0.0,4.0,63,0.00,,,0.00,336,weatherlink.com 1.10,2013-04-03 00:26:00,
2013-04-02 17:41:00,66.2,54.0,30.15,SSW,192,2.0,6.0,65,0.00,,,0.00,283,weatherlink.com 1.10,2013-04-03 00:41:00,
2013-04-02 17:56:00,65.0,54.0,30.15,South,182,0.0,6.0,68,0.00,,,0.00,216,weatherlink.com 1.10,2013-04-03 00:56:00,
2013-04-02 18:11:00,64.5,54.0,30.16,South,181,0.0,3.0,69,0.00,,,0.00,148,weatherlink.com 1.10,2013-04-03 01:11:00,
2013-04-02 18:26:00,63.6,54.0,30.16,SSE,157,0.0,3.0,71,0.00,,,0.00,90,weatherlink.com 1.10,2013-04-03 01:26:00,
2013-04-02 18:41:00,62.6,53.0,30.16,SSE,149,0.0,3.0,72,0.00,,,0.00,28,weatherlink.com 1.10,2013-04-03 01:41:00,
2013-04-02 18:56:00,60.2,53.0,30.16,SSE,152,0.0,1.0,77,0.00,,,0.00,16,weatherlink.com 1.10,2013-04-03 01:56:00,
2013-04-02 19:11:00,59.0,53.0,30.16,SSE,152,0.0,1.0,80,0.00,,,0.00,5,weatherlink.com 1.10,2013-04-03 02:11:00,
2013-04-02 19:26:00,57.7,52.0,30.17,SSE,152,0.0,0.0,82,0.00,,,0.00,0,weatherlink.com 1.10,2013-04-03 02:26:00,
2013-04-02 19:41:00,56.0,51.0,30.17,SSE,152,0.0,0.0,83,0.00,,,0.00,0,weatherlink.com 1.10,2013-04-03 02:41:00,
2013-04-02 19:56:00,54.6,50.0,30.17,SSE,152,0.0,0.0,84,0.00,,,0.00,0,weatherlink.com 1.10,2013-04-03 02:56:00,
2013-04-02 20:11:00,53.2,49.0,30.18,SSE,152,0.0,1.0,85,0.00,,,0.00,0,weatherlink.com 1.10,2013-04-03 03:11:00,
2013-04-02 20:26:00,52.2,48.0,30.18,SSE,152,0.0,0.0,86,0.00,,,0.00,0,weatherlink.com 1.10,2013-04-03 03:26:00,
2013-04-02 20:41:00,51.4,48.0,30.19,SSE,152,0.0,0.0,87,0.00,,,0.00,0,weatherlink.com 1.10,2013-04-03 03:41:00,
2013-04-02 20:56:00,50.5,47.0,30.19,SSE,152,0.0,0.0,88,0.00,,,0.00,0,weatherlink.com 1.10,2013-04-03 03:56:00,
2013-04-02 21:11:00,50.0,47.0,30.20,SSE,152,0.0,0.0,89,0.00,,,0.00,0,weatherlink.com 1.10,2013-04-03 04:11:00,
2013-04-02 21:26:00,49.8,47.0,30.21,SSE,152,0.0,0.0,89,0.00,,,0.00,0,weatherlink.com 1.10,2013-04-03 04:26:00,
2013-04-02 21:41:00,49.5,47.0,30.22,SSE,152,0.0,0.0,90,0.00,,,0.00,0,weatherlink.com 1.10,2013-04-03 04:41:00,
2013-04-02 21:56:00,49.2,47.0,30.21,SSE,152,0.0,1.0,91,0.00,,,0.00,0,weatherlink.com 1.10,2013-04-03 04:56:00,
2013-04-02 22:11:00,49.0,47.0,30.22,SSE,152,0.0,0.0,91,0.00,,,0.00,0,weatherlink.com 1.10,2013-04-03 05:11:00,
2013-04-02 22:26:00,48.6,46.0,30.22,SSE,152,0.0,0.0,91,0.00,,,0.00,0,weatherlink.com 1.10,2013-04-03 05:26:00,
2013-04-02 22:41:00,48.2,46.0,30.22,SSE,152,0.0,0.0,91,0.00,,,0.00,0,weatherlink.com 1.10,2013-04-03 05:41:00,
2013-04-02 22:56:00,47.8,45.0,30.21,SSE,152,0.0,0.0,91,0.00,,,0.00,0,weatherlink.com 1.10,2013-04-03 05:56:00,
2013-04-02 23:11:00,47.6,45.0,30.21,SSE,152,0.0,0.0,92,0.00,,,0.00,0,weatherlink.com 1.10,2013-04-03 06:11:00,
2013-04-02 23:26:00,47.4,45.0,30.22,SSE,152,0.0,1.0,92,0.00,,,0.00,0,weatherlink.com 1.10,2013-04-03 06:26:00,
2013-04-02 23:41:00,47.3,45.0,30.21,SSE,152,0.0,0.0,92,0.00,,,0.00,0,weatherlink.com 1.10,2013-04-03 06:41:00,
2013-04-02 23:56:00,46.9,45.0,30.22,SSE,152,0.0,0.0,93,0.00,,,0.00,0,weatherlink.com 1.10,2013-04-03 06:56:00,